Location: Les Coudrans
(46.1056°N, 1.1158°W)
Time: 15:43:26
(UTC+00:00)

Cosmos 2366 rocket - Pass Details

Date: 03 March 2021
Orbit: 954 x 998 km, 82.9° (Epoch: 17 April)

Event Time Altitude Azimuth Distance (km) Brightness Sun altitude
Rises 20:05:14 0° 189° (S) 3,679 7.0 -23.4°
Reaches altitude 10° 20:07:44 10° 190° (S) 2,740 6.3 -23.8°
Maximum altitude 20:14:03 83° 278° (W) 1,008 4.0 -24.8°
Drops below altitude 10° 20:20:27 10° 7° (N) 2,776 6.5 -25.9°
Sets 20:23:00 0° 9° (N) 3,731 7.2 -26.3°
